"Time","Value","Approval","myLocation"
"2023-05-06 00:00",0.211590078485952,"Approved","OW122"
"2023-05-06 01:00",0.2105917017113,"Approved","OW122"
"2023-05-06 02:00",0.209593324936649,"Approved","OW122"
"2023-05-06 03:00",0.208594948161998,"Approved","OW122"
"2023-05-06 04:00",0.210596571387347,"Approved","OW122"
"2023-05-06 05:00",0.209598194612695,"Approved","OW122"
"2023-05-06 06:00",0.209599817838044,"Approved","OW122"
"2023-05-06 07:00",0.210601441063393,"Approved","OW122"
"2023-05-06 08:00",0.211603064288742,"Approved","OW122"
"2023-05-06 09:00",0.21260468751409,"Approved","OW122"
"2023-05-06 10:00",0.210606310739439,"Approved","OW122"
"2023-05-06 11:00",0.209607933964788,"Approved","OW122"
"2023-05-06 12:00",0.209609557190137,"Approved","OW122"
"2023-05-06 13:00",0.206611180415486,"Approved","OW122"
"2023-05-06 14:00",0.205612803640834,"Approved","OW122"
"2023-05-06 15:00",0.207614426866183,"Approved","OW122"
"2023-05-06 16:00",0.210616050091532,"Approved","OW122"
"2023-05-06 17:00",0.211617673316881,"Approved","OW122"
"2023-05-06 18:00",0.215619296542229,"Approved","OW122"
"2023-05-06 19:00",0.217620919767578,"Approved","OW122"
"2023-05-06 20:00",0.218622542992927,"Approved","OW122"
"2023-05-06 21:00",0.218624166218276,"Approved","OW122"
"2023-05-06 22:00",0.217625789443624,"Approved","OW122"
"2023-05-06 23:00",0.215627412668973,"Approved","OW122"
"2023-05-07 00:00",0.213629035894322,"Approved","OW122"
"2023-05-07 01:00",0.211630659119671,"Approved","OW122"
"2023-05-07 02:00",0.20963228234502,"Approved","OW122"
"2023-05-07 03:00",0.207633905570368,"Approved","OW122"
"2023-05-07 04:00",0.207635528795717,"Approved","OW122"
"2023-05-07 05:00",0.206637152021066,"Approved","OW122"
"2023-05-07 06:00",0.206638775246415,"Approved","OW122"
"2023-05-07 07:00",0.207640398471763,"Approved","OW122"
"2023-05-07 08:00",0.207642021697112,"Approved","OW122"
"2023-05-07 09:00",0.207643644922461,"Approved","OW122"
"2023-05-07 10:00",0.20764526814781,"Approved","OW122"
"2023-05-07 11:00",0.207646891373158,"Approved","OW122"
"2023-05-07 12:00",0.207648514598507,"Approved","OW122"
"2023-05-07 13:00",0.207650137823856,"Approved","OW122"
"2023-05-07 14:00",0.208651761049205,"Approved","OW122"
"2023-05-07 15:00",0.211653384274554,"Approved","OW122"
"2023-05-07 16:00",0.213655007499902,"Approved","OW122"
"2023-05-07 17:00",0.216656630725251,"Approved","OW122"
"2023-05-07 18:00",0.2196582539506,"Approved","OW122"
"2023-05-07 19:00",0.222659877175949,"Approved","OW122"
"2023-05-07 20:00",0.224661500401297,"Approved","OW122"
"2023-05-07 21:00",0.225663123626646,"Approved","OW122"
"2023-05-07 22:00",0.225664746851995,"Approved","OW122"
"2023-05-07 23:00",0.223666370077344,"Approved","OW122"
"2023-05-08 00:00",0.221667993302692,"Approved","OW122"
"2023-05-08 01:00",0.219669616528041,"Approved","OW122"
"2023-05-08 02:00",0.21767123975339,"Approved","OW122"
"2023-05-08 03:00",0.215672862978739,"Approved","OW122"
"2023-05-08 04:00",0.213674486204088,"Approved","OW122"
"2023-05-08 05:00",0.212676109429436,"Approved","OW122"
"2023-05-08 06:00",0.211677732654785,"Approved","OW122"
"2023-05-08 07:00",0.211679355880134,"Approved","OW122"
"2023-05-08 08:00",0.211680979105483,"Approved","OW122"
"2023-05-08 09:00",0.211682602330831,"Approved","OW122"
"2023-05-08 10:00",0.21068422555618,"Approved","OW122"
"2023-05-08 11:00",0.210685848781529,"Approved","OW122"
"2023-05-08 12:00",0.210687472006878,"Approved","OW122"
"2023-05-08 13:00",0.211689095232226,"Approved","OW122"
"2023-05-08 14:00",0.211690718457575,"Approved","OW122"
"2023-05-08 15:00",0.213692341682924,"Approved","OW122"
"2023-05-08 16:00",0.214693964908273,"Approved","OW122"
"2023-05-08 17:00",0.215695588133621,"Approved","OW122"
"2023-05-08 18:00",0.21769721135897,"Approved","OW122"
"2023-05-08 19:00",0.219698834584319,"Approved","OW122"
"2023-05-08 20:00",0.220700457809668,"Approved","OW122"
"2023-05-08 21:00",0.220702081035017,"Approved","OW122"
"2023-05-08 22:00",0.220703704260365,"Approved","OW122"
"2023-05-08 23:00",0.220705327485714,"Approved","OW122"
"2023-05-09 00:00",0.218706950711063,"Approved","OW122"
"2023-05-09 01:00",0.216708573936412,"Approved","OW122"
"2023-05-09 02:00",0.21471019716176,"Approved","OW122"
"2023-05-09 03:00",0.213711820387109,"Approved","OW122"
"2023-05-09 04:00",0.211713443612458,"Approved","OW122"
"2023-05-09 05:00",0.210715066837807,"Approved","OW122"
"2023-05-09 06:00",0.210716690063155,"Approved","OW122"
"2023-05-09 07:00",0.209718313288504,"Approved","OW122"
"2023-05-09 08:00",0.208719936513853,"Approved","OW122"
"2023-05-09 09:00",0.208721559739202,"Approved","OW122"
"2023-05-09 10:00",0.207723182964551,"Approved","OW122"
"2023-05-09 11:00",0.208724806189899,"Approved","OW122"
"2023-05-09 12:00",0.208726429415248,"Approved","OW122"
"2023-05-09 13:00",0.208728052640597,"Approved","OW122"
"2023-05-09 14:00",0.209729675865946,"Approved","OW122"
"2023-05-09 15:00",0.210731299091294,"Approved","OW122"
"2023-05-09 16:00",0.212732922316643,"Approved","OW122"
"2023-05-09 17:00",0.213734545541992,"Approved","OW122"
"2023-05-09 18:00",0.215736168767341,"Approved","OW122"
"2023-05-09 19:00",0.216737791992689,"Approved","OW122"
"2023-05-09 20:00",0.217739415218038,"Approved","OW122"
"2023-05-09 21:00",0.219741038443387,"Approved","OW122"
"2023-05-09 22:00",0.219742661668736,"Approved","OW122"
"2023-05-09 23:00",0.219744284894085,"Approved","OW122"
"2023-05-10 00:00",0.219745908119433,"Approved","OW122"
"2023-05-10 01:00",0.217747531344782,"Approved","OW122"
"2023-05-10 02:00",0.215749154570131,"Approved","OW122"
"2023-05-10 03:00",0.21475077779548,"Approved","OW122"
"2023-05-10 04:00",0.213752401020828,"Approved","OW122"
"2023-05-10 05:00",0.212754024246177,"Approved","OW122"
"2023-05-10 06:00",0.210755647471526,"Approved","OW122"
"2023-05-10 07:00",0.209757270696875,"Approved","OW122"
"2023-05-10 08:00",0.208758893922223,"Approved","OW122"
"2023-05-10 09:00",0.208760517147572,"Approved","OW122"
"2023-05-10 10:00",0.207762140372921,"Approved","OW122"
"2023-05-10 11:00",0.20776376359827,"Approved","OW122"
"2023-05-10 12:00",0.207765386823619,"Approved","OW122"
"2023-05-10 13:00",0.207767010048967,"Approved","OW122"
"2023-05-10 14:00",0.208768633274316,"Approved","OW122"
"2023-05-10 15:00",0.208770256499665,"Approved","OW122"
"2023-05-10 16:00",0.208771879725014,"Approved","OW122"
"2023-05-10 17:00",0.207773502950362,"Approved","OW122"
"2023-05-10 18:00",0.208775126175711,"Approved","OW122"
"2023-05-10 19:00",0.20777674940106,"Approved","OW122"
"2023-05-10 20:00",0.208778372626409,"Approved","OW122"
"2023-05-10 21:00",0.209779995851757,"Approved","OW122"
"2023-05-10 22:00",0.210781619077106,"Approved","OW122"
"2023-05-10 23:00",0.209783242302455,"Approved","OW122"
"2023-05-11 00:00",0.210784865527804,"Approved","OW122"
"2023-05-11 01:00",0.209786488753153,"Approved","OW122"
"2023-05-11 02:00",0.209788111978501,"Approved","OW122"
"2023-05-11 03:00",0.20978973520385,"Approved","OW122"
"2023-05-11 04:00",0.210791358429199,"Approved","OW122"
"2023-05-11 05:00",0.209792981654548,"Approved","OW122"
"2023-05-11 06:00",0.208794604879896,"Approved","OW122"
"2023-05-11 07:00",0.207796228105245,"Approved","OW122"
"2023-05-11 08:00",0.206797851330594,"Approved","OW122"
"2023-05-11 09:00",0.206799474555943,"Approved","OW122"
"2023-05-11 10:00",0.206801097781291,"Approved","OW122"
"2023-05-11 11:00",0.20580272100664,"Approved","OW122"
"2023-05-11 12:00",0.206804344231989,"Approved","OW122"
"2023-05-11 13:00",0.207805967457338,"Approved","OW122"
"2023-05-11 14:00",0.208807590682687,"Approved","OW122"
"2023-05-11 15:00",0.209809213908035,"Approved","OW122"
"2023-05-11 16:00",0.209810837133384,"Approved","OW122"
"2023-05-11 17:00",0.209812460358733,"Approved","OW122"
"2023-05-11 18:00",0.210814083584082,"Approved","OW122"
"2023-05-11 19:00",0.21081570680943,"Approved","OW122"
"2023-05-11 20:00",0.209817330034779,"Approved","OW122"
"2023-05-11 21:00",0.210818953260128,"Approved","OW122"
"2023-05-11 22:00",0.210820576485477,"Approved","OW122"
"2023-05-11 23:00",0.211822199710825,"Approved","OW122"
"2023-05-12 00:00",0.213823822936174,"Approved","OW122"
"2023-05-12 01:00",0.211825446161523,"Approved","OW122"
"2023-05-12 02:00",0.212827069386872,"Approved","OW122"
"2023-05-12 03:00",0.21182869261222,"Approved","OW122"
"2023-05-12 04:00",0.211830315837569,"Approved","OW122"
"2023-05-12 05:00",0.212831939062918,"Approved","OW122"
"2023-05-12 06:00",0.211833562288267,"Approved","OW122"
"2023-05-12 07:00",0.211835185513616,"Approved","OW122"
"2023-05-12 08:00",0.212836808738964,"Approved","OW122"
"2023-05-12 09:00",0.212838431964313,"Approved","OW122"
"2023-05-12 10:00",0.212840055189662,"Approved","OW122"
"2023-05-12 11:00",0.213841678415011,"Approved","OW122"
"2023-05-12 12:00",0.215843301640359,"Approved","OW122"
"2023-05-12 13:00",0.216844924865708,"Approved","OW122"
"2023-05-12 14:00",0.218846548091057,"Approved","OW122"
"2023-05-12 15:00",0.219848171316406,"Approved","OW122"
"2023-05-12 16:00",0.219849794541754,"Approved","OW122"
"2023-05-12 17:00",0.219851417767103,"Approved","OW122"
"2023-05-12 18:00",0.219853040992452,"Approved","OW122"
"2023-05-12 19:00",0.218854664217801,"Approved","OW122"
"2023-05-12 20:00",0.21885628744315,"Approved","OW122"
"2023-05-12 21:00",0.219857910668498,"Approved","OW122"
"2023-05-12 22:00",0.218859533893847,"Approved","OW122"
"2023-05-12 23:00",0.218861157119196,"Approved","OW122"
"2023-05-13 00:00",0.218862780344545,"Approved","OW122"
"2023-05-13 01:00",0.218864403569893,"Approved","OW122"
"2023-05-13 02:00",0.218866026795242,"Approved","OW122"
"2023-05-13 03:00",0.219867650020591,"Approved","OW122"
"2023-05-13 04:00",0.21986927324594,"Approved","OW122"
"2023-05-13 05:00",0.219870896471288,"Approved","OW122"
"2023-05-13 06:00",0.219872519696637,"Approved","OW122"
"2023-05-13 07:00",0.219874142921986,"Approved","OW122"
"2023-05-13 08:00",0.218875766147335,"Approved","OW122"
"2023-05-13 09:00",0.218877389372684,"Approved","OW122"
"2023-05-13 10:00",0.218879012598032,"Approved","OW122"
"2023-05-13 11:00",0.218880635823381,"Approved","OW122"
"2023-05-13 12:00",0.21988225904873,"Approved","OW122"
"2023-05-13 13:00",0.220883882274079,"Approved","OW122"
"2023-05-13 14:00",0.221885505499427,"Approved","OW122"
"2023-05-13 15:00",0.222887128724776,"Approved","OW122"
"2023-05-13 16:00",0.222888751950125,"Approved","OW122"
"2023-05-13 17:00",0.221890375175474,"Approved","OW122"
"2023-05-13 18:00",0.220891998400822,"Approved","OW122"
"2023-05-13 19:00",0.219893621626171,"Approved","OW122"
"2023-05-13 20:00",0.21689524485152,"Approved","OW122"
"2023-05-13 21:00",0.214896868076869,"Approved","OW122"
"2023-05-13 22:00",0.213898491302217,"Approved","OW122"
"2023-05-13 23:00",0.211900114527566,"Approved","OW122"
"2023-05-14 00:00",0.211901737752915,"Approved","OW122"
"2023-05-14 01:00",0.210903360978264,"Approved","OW122"
"2023-05-14 02:00",0.209904984203613,"Approved","OW122"
"2023-05-14 03:00",0.210906607428961,"Approved","OW122"
"2023-05-14 04:00",0.21190823065431,"Approved","OW122"
"2023-05-14 05:00",0.211909853879659,"Approved","OW122"
"2023-05-14 06:00",0.211911477105008,"Approved","OW122"
"2023-05-14 07:00",0.209913100330356,"Approved","OW122"
"2023-05-14 08:00",0.209914723555705,"Approved","OW122"
"2023-05-14 09:00",0.207916346781054,"Approved","OW122"
"2023-05-14 10:00",0.205917970006403,"Approved","OW122"
"2023-05-14 11:00",0.204919593231751,"Approved","OW122"
"2023-05-14 12:00",0.2059212164571,"Approved","OW122"
"2023-05-14 13:00",0.204922839682449,"Approved","OW122"
"2023-05-14 14:00",0.205924462907798,"Approved","OW122"
"2023-05-14 15:00",0.205926086133147,"Approved","OW122"
"2023-05-14 16:00",0.205927709358495,"Approved","OW122"
"2023-05-14 17:00",0.202929332583844,"Approved","OW122"
"2023-05-14 18:00",0.200930955809193,"Approved","OW122"
"2023-05-14 19:00",0.198932579034542,"Approved","OW122"
"2023-05-14 20:00",0.19593420225989,"Approved","OW122"
"2023-05-14 21:00",0.192935825485239,"Approved","OW122"
"2023-05-14 22:00",0.189937448710588,"Approved","OW122"
"2023-05-14 23:00",0.187939071935937,"Approved","OW122"
"2023-05-15 00:00",0.185940695161285,"Approved","OW122"
"2023-05-15 01:00",0.184942318386634,"Approved","OW122"
"2023-05-15 02:00",0.184943941611983,"Approved","OW122"
"2023-05-15 03:00",0.184945564837332,"Approved","OW122"
"2023-05-15 04:00",0.183947188062681,"Approved","OW122"
"2023-05-15 05:00",0.184948811288029,"Approved","OW122"
"2023-05-15 06:00",0.183950434513378,"Approved","OW122"
"2023-05-15 07:00",0.181952057738727,"Approved","OW122"
"2023-05-15 08:00",0.181953680964076,"Approved","OW122"
"2023-05-15 09:00",0.180955304189424,"Approved","OW122"
"2023-05-15 10:00",0.179956927414773,"Approved","OW122"
"2023-05-15 11:00",0.178958550640122,"Approved","OW122"
"2023-05-15 12:00",0.177960173865471,"Approved","OW122"
"2023-05-15 13:00",0.178961797090819,"Approved","OW122"
"2023-05-15 14:00",0.179963420316168,"Approved","OW122"
"2023-05-15 15:00",0.180965043541517,"Approved","OW122"
"2023-05-15 16:00",0.180966666766866,"Approved","OW122"
"2023-05-15 17:00",0.179968289992215,"Approved","OW122"
"2023-05-15 18:00",0.178969913217563,"Approved","OW122"
"2023-05-15 19:00",0.175971536442912,"Approved","OW122"
"2023-05-15 20:00",0.172973159668261,"Approved","OW122"
"2023-05-15 21:00",0.17097478289361,"Approved","OW122"
"2023-05-15 22:00",0.167976406118958,"Approved","OW122"
"2023-05-15 23:00",0.163978029344307,"Approved","OW122"
"2023-05-16 00:00",0.161979652569656,"Approved","OW122"
"2023-05-16 01:00",0.159981275795005,"Approved","OW122"
"2023-05-16 02:00",0.158982899020353,"Approved","OW122"
"2023-05-16 03:00",0.159984522245702,"Approved","OW122"
"2023-05-16 04:00",0.160986145471051,"Approved","OW122"
"2023-05-16 05:00",0.1619877686964,"Approved","OW122"
"2023-05-16 06:00",0.162989391921749,"Approved","OW122"
"2023-05-16 07:00",0.163991015147097,"Approved","OW122"
"2023-05-16 08:00",0.164992638372446,"Approved","OW122"
"2023-05-16 09:00",0.164994261597795,"Approved","OW122"
"2023-05-16 10:00",0.164995884823144,"Approved","OW122"
"2023-05-16 11:00",0.164997508048492,"Approved","OW122"
"2023-05-16 12:00",0.166999131273841,"Approved","OW122"
"2023-05-16 13:00",0.16900075449919,"Approved","OW122"
"2023-05-16 14:00",0.173002377724539,"Approved","OW122"
"2023-05-16 15:00",0.175004000949887,"Approved","OW122"
"2023-05-16 16:00",0.178005624175236,"Approved","OW122"
"2023-05-16 17:00",0.179007247400585,"Approved","OW122"
"2023-05-16 18:00",0.181008870625934,"Approved","OW122"
"2023-05-16 19:00",0.181010493851282,"Approved","OW122"
"2023-05-16 20:00",0.179012117076631,"Approved","OW122"
"2023-05-16 21:00",0.17601374030198,"Approved","OW122"
"2023-05-16 22:00",0.174015363527329,"Approved","OW122"
"2023-05-16 23:00",0.171016986752678,"Approved","OW122"
"2023-05-17 00:00",0.169018609978026,"Approved","OW122"
"2023-05-17 01:00",0.167020233203375,"Approved","OW122"
"2023-05-17 02:00",0.167021856428724,"Approved","OW122"
"2023-05-17 03:00",0.169023479654073,"Approved","OW122"
"2023-05-17 04:00",0.172025102879421,"Approved","OW122"
"2023-05-17 05:00",0.17402672610477,"Approved","OW122"
"2023-05-17 06:00",0.175028349330119,"Approved","OW122"
"2023-05-17 07:00",0.177029972555468,"Approved","OW122"
"2023-05-17 08:00",0.178031595780816,"Approved","OW122"
"2023-05-17 09:00",0.179033219006165,"Approved","OW122"
"2023-05-17 10:00",0.180034842231514,"Approved","OW122"
"2023-05-17 11:00",0.182036465456863,"Approved","OW122"
"2023-05-17 12:00",0.183038088682212,"Approved","OW122"
"2023-05-17 13:00",0.18603971190756,"Approved","OW122"
"2023-05-17 14:00",0.190041335132909,"Approved","OW122"
"2023-05-17 15:00",0.193042958358258,"Approved","OW122"
"2023-05-17 16:00",0.196044581583607,"Approved","OW122"
"2023-05-17 17:00",0.199046204808955,"Approved","OW122"
"2023-05-17 18:00",0.199047828034304,"Approved","OW122"
"2023-05-17 19:00",0.199049451259653,"Approved","OW122"
"2023-05-17 20:00",0.199051074485002,"Approved","OW122"
"2023-05-17 21:00",0.19705269771035,"Approved","OW122"
"2023-05-17 22:00",0.194054320935699,"Approved","OW122"
"2023-05-17 23:00",0.191055944161048,"Approved","OW122"
"2023-05-18 00:00",0.187057567386397,"Approved","OW122"
"2023-05-18 01:00",0.184059190611746,"Approved","OW122"
"2023-05-18 02:00",0.182060813837094,"Approved","OW122"
"2023-05-18 03:00",0.182062437062443,"Approved","OW122"
"2023-05-18 04:00",0.183064060287792,"Approved","OW122"
"2023-05-18 05:00",0.185065683513141,"Approved","OW122"
"2023-05-18 06:00",0.186067306738489,"Approved","OW122"
"2023-05-18 07:00",0.188068929963838,"Approved","OW122"
"2023-05-18 08:00",0.190070553189187,"Approved","OW122"
"2023-05-18 09:00",0.190072176414536,"Approved","OW122"
"2023-05-18 10:00",0.190073799639884,"Approved","OW122"
"2023-05-18 11:00",0.192075422865233,"Approved","OW122"
"2023-05-18 12:00",0.193077046090582,"Approved","OW122"
"2023-05-18 13:00",0.195078669315931,"Approved","OW122"
"2023-05-18 14:00",0.19908029254128,"Approved","OW122"
"2023-05-18 15:00",0.202081915766628,"Approved","OW122"
"2023-05-18 16:00",0.205083538991977,"Approved","OW122"
"2023-05-18 17:00",0.208085162217326,"Approved","OW122"
"2023-05-18 18:00",0.208086785442675,"Approved","OW122"
"2023-05-18 19:00",0.209088408668023,"Approved","OW122"
"2023-05-18 20:00",0.209090031893372,"Approved","OW122"
"2023-05-18 21:00",0.207091655118721,"Approved","OW122"
"2023-05-18 22:00",0.20409327834407,"Approved","OW122"
"2023-05-18 23:00",0.200094901569418,"Approved","OW122"
"2023-05-19 00:00",0.197096524794767,"Approved","OW122"
"2023-05-19 01:00",0.195098148020116,"Approved","OW122"
"2023-05-19 02:00",0.198099771245465,"Approved","OW122"
"2023-05-19 03:00",0.198101394470814,"Approved","OW122"
"2023-05-19 04:00",0.199103017696162,"Approved","OW122"
"2023-05-19 05:00",0.200104640921511,"Approved","OW122"
"2023-05-19 06:00",0.20110626414686,"Approved","OW122"
"2023-05-19 07:00",0.203107887372209,"Approved","OW122"
"2023-05-19 08:00",0.203109510597557,"Approved","OW122"
"2023-05-19 09:00",0.204111133822906,"Approved","OW122"
"2023-05-19 10:00",0.204112757048255,"Approved","OW122"
"2023-05-19 11:00",0.204114380273604,"Approved","OW122"
"2023-05-19 12:00",0.204116003498952,"Approved","OW122"
"2023-05-19 13:00",0.205117626724301,"Approved","OW122"
"2023-05-19 14:00",0.20811924994965,"Approved","OW122"
"2023-05-19 15:00",0.211120873174999,"Approved","OW122"
"2023-05-19 16:00",0.212122496400347,"Approved","OW122"
"2023-05-19 17:00",0.213124119625696,"Approved","OW122"
"2023-05-19 18:00",0.215125742851045,"Approved","OW122"
"2023-05-19 19:00",0.215127366076394,"Approved","OW122"
"2023-05-19 20:00",0.214128989301743,"Approved","OW122"
"2023-05-19 21:00",0.213130612527091,"Approved","OW122"
"2023-05-19 22:00",0.21013223575244,"Approved","OW122"
"2023-05-19 23:00",0.206133858977789,"Approved","OW122"
"2023-05-20 00:00",0.201135482203138,"Approved","OW122"
"2023-05-20 01:00",0.197137105428486,"Approved","OW122"
"2023-05-20 02:00",0.191138728653835,"Approved","OW122"
"2023-05-20 03:00",0.189140351879184,"Approved","OW122"
"2023-05-20 04:00",0.187141975104533,"Approved","OW122"
"2023-05-20 05:00",0.187143598329881,"Approved","OW122"
"2023-05-20 06:00",0.18714522155523,"Approved","OW122"
"2023-05-20 07:00",0.187146844780579,"Approved","OW122"
"2023-05-20 08:00",0.188148468005928,"Approved","OW122"
"2023-05-20 09:00",0.187150091231277,"Approved","OW122"
"2023-05-20 10:00",0.187151714456625,"Approved","OW122"
"2023-05-20 11:00",0.187153337681974,"Approved","OW122"
"2023-05-20 12:00",0.188154960907323,"Approved","OW122"
"2023-05-20 13:00",0.189156584132672,"Approved","OW122"
"2023-05-20 14:00",0.19015820735802,"Approved","OW122"
"2023-05-20 15:00",0.193159830583369,"Approved","OW122"
"2023-05-20 16:00",0.193161453808718,"Approved","OW122"
"2023-05-20 17:00",0.195163077034067,"Approved","OW122"
"2023-05-20 18:00",0.196164700259415,"Approved","OW122"
"2023-05-20 19:00",0.197166323484764,"Approved","OW122"
"2023-05-20 20:00",0.196167946710113,"Approved","OW122"
"2023-05-20 21:00",0.194169569935462,"Approved","OW122"
"2023-05-20 22:00",0.191171193160811,"Approved","OW122"
"2023-05-20 23:00",0.188172816386159,"Approved","OW122"
"2023-05-21 00:00",0.186174439611508,"Approved","OW122"
"2023-05-21 01:00",0.182176062836857,"Approved","OW122"
"2023-05-21 02:00",0.181177686062206,"Approved","OW122"
"2023-05-21 03:00",0.180179309287554,"Approved","OW122"
"2023-05-21 04:00",0.180180932512903,"Approved","OW122"
"2023-05-21 05:00",0.180182555738252,"Approved","OW122"
"2023-05-21 06:00",0.180184178963601,"Approved","OW122"
"2023-05-21 07:00",0.182185802188949,"Approved","OW122"
"2023-05-21 08:00",0.183187425414298,"Approved","OW122"
"2023-05-21 09:00",0.184189048639647,"Approved","OW122"
"2023-05-21 10:00",0.185190671864996,"Approved","OW122"
"2023-05-21 11:00",0.188192295090345,"Approved","OW122"
"2023-05-21 12:00",0.188193918315693,"Approved","OW122"
"2023-05-21 13:00",0.191195541541042,"Approved","OW122"
"2023-05-21 14:00",0.194197164766391,"Approved","OW122"
"2023-05-21 15:00",0.20019878799174,"Approved","OW122"
"2023-05-21 16:00",0.204200411217088,"Approved","OW122"
"2023-05-21 17:00",0.204202034442437,"Approved","OW122"
"2023-05-21 18:00",0.209203657667786,"Approved","OW122"
"2023-05-21 19:00",0.213205280893135,"Approved","OW122"
"2023-05-21 20:00",0.215206904118483,"Approved","OW122"
"2023-05-21 21:00",0.215208527343832,"Approved","OW122"
"2023-05-21 22:00",0.217210150569181,"Approved","OW122"
"2023-05-21 23:00",0.21521177379453,"Approved","OW122"
"2023-05-22 00:00",0.215213397019878,"Approved","OW122"
"2023-05-22 01:00",0.213215020245227,"Approved","OW122"
"2023-05-22 02:00",0.210216643470576,"Approved","OW122"
"2023-05-22 03:00",0.210218266695925,"Approved","OW122"
"2023-05-22 04:00",0.210219889921274,"Approved","OW122"
"2023-05-22 05:00",0.210221513146622,"Approved","OW122"
"2023-05-22 06:00",0.210223136371971,"Approved","OW122"
"2023-05-22 07:00",0.21122475959732,"Approved","OW122"
"2023-05-22 08:00",0.213226382822669,"Approved","OW122"
"2023-05-22 09:00",0.214228006048017,"Approved","OW122"
"2023-05-22 10:00",0.215229629273366,"Approved","OW122"
"2023-05-22 11:00",0.214231252498715,"Approved","OW122"
"2023-05-22 12:00",0.215232875724064,"Approved","OW122"
"2023-05-22 13:00",0.215234498949412,"Approved","OW122"
"2023-05-22 14:00",0.215236122174761,"Approved","OW122"
"2023-05-22 15:00",0.21823774540011,"Approved","OW122"
"2023-05-22 16:00",0.219239368625459,"Approved","OW122"
"2023-05-22 17:00",0.221240991850808,"Approved","OW122"
"2023-05-22 18:00",0.225242615076156,"Approved","OW122"
"2023-05-22 19:00",0.227244238301505,"Approved","OW122"
"2023-05-22 20:00",0.229245861526854,"Approved","OW122"
"2023-05-22 21:00",0.230247484752203,"Approved","OW122"
"2023-05-22 22:00",0.232249107977551,"Approved","OW122"
"2023-05-22 23:00",0.2312507312029,"Approved","OW122"
"2023-05-23 00:00",0.230252354428249,"Approved","OW122"
"2023-05-23 01:00",0.227253977653598,"Approved","OW122"
"2023-05-23 02:00",0.225255600878946,"Approved","OW122"
"2023-05-23 03:00",0.223257224104295,"Approved","OW122"
"2023-05-23 04:00",0.222258847329644,"Approved","OW122"
"2023-05-23 05:00",0.220260470554993,"Approved","OW122"
"2023-05-23 06:00",0.219262093780342,"Approved","OW122"
"2023-05-23 07:00",0.21926371700569,"Approved","OW122"
"2023-05-23 08:00",0.218265340231039,"Approved","OW122"
"2023-05-23 09:00",0.217266963456388,"Approved","OW122"
"2023-05-23 10:00",0.216268586681737,"Approved","OW122"
"2023-05-23 11:00",0.216270209907085,"Approved","OW122"
"2023-05-23 12:00",0.215271833132434,"Approved","OW122"